This is the latest recevied weather packets stored in our database for station/object SR9NSK-1. If no packets are shown the sender has not sent any weather packets the latest 1 day(s).
| Time | Temp. | Humidity | Pressure | Rain* | Wind** | Luminosity | Snow |
|---|---|---|---|---|---|---|---|
| 1778032807 | 7.78° C | 61% | 867 hPa | - | 8.94 m/s, 165° | - | - |
| 1778032687 | 7.78° C | 61% | 867 hPa | - | 8.49 m/s, 163° | - | - |
| 1778032567 | 7.78° C | 61% | 867 hPa | - | 8.49 m/s, 169° | - | - |
| 1778032445 | 7.78° C | 61% | 866.9 hPa | - | 8.05 m/s, 164° | - | - |
| 1778032325 | 7.78° C | 61% | 866.9 hPa | - | 9.83 m/s, 164° | - | - |
| 1778032205 | 8.33° C | 61% | 866.8 hPa | - | 9.83 m/s, 167° | - | - |
| 1778032085 | 8.33° C | 61% | 866.7 hPa | - | 12.07 m/s, 163° | - | - |
| 1778031965 | 8.33° C | 60% | 866.6 hPa | - | 12.52 m/s, 165° | - | - |
| 1778031845 | 8.33° C | 60% | 866.7 hPa | - | 11.18 m/s, 164° | - | - |
| 1778031725 | 8.33° C | 60% | 866.7 hPa | - | 10.73 m/s, 170° | - | - |
| 1778031605 | 8.33° C | 60% | 866.8 hPa | - | 12.07 m/s, 167° | - | - |
| 1778031485 | 8.33° C | 60% | 866.9 hPa | - | 9.83 m/s, 163° | - | - |
| 1778031365 | 8.33° C | 60% | 866.9 hPa | - | 9.83 m/s, 165° | - | - |
| 1778031243 | 8.33° C | 60% | 867 hPa | - | 10.73 m/s, 163° | - | - |
| 1778031121 | 8.33° C | 60% | 867.1 hPa | - | 8.94 m/s, 162° | - | - |
| 1778031001 | 8.33° C | 60% | 867.1 hPa | - | 8.94 m/s, 160° | - | - |
| 1778030881 | 8.33° C | 60% | 867.1 hPa | - | 8.94 m/s, 162° | - | - |
| 1778030761 | 8.33° C | 60% | 867 hPa | - | 11.18 m/s, 160° | - | - |
| 1778030641 | 8.33° C | 60% | 866.9 hPa | - | 10.73 m/s, 155° | - | - |
| 1778030522 | 8.33° C | 59% | 866.9 hPa | - | 7.6 m/s, 151° | - | - |
| 1778030401 | 8.33° C | 59% | 867 hPa | - | 8.05 m/s, 145° | - | - |
| 1778030281 | 8.33° C | 59% | 866.9 hPa | - | 8.94 m/s, 156° | - | - |
| 1778030161 | 8.33° C | 59% | 867 hPa | - | 9.39 m/s, 163° | - | - |
| 1778030039 | 8.33° C | 59% | 867.1 hPa | - | 7.6 m/s, 152° | - | - |
| 1778029919 | 8.33° C | 59% | 867 hPa | - | 8.49 m/s, 152° | - | - |
* Rain since midnight (hover to see other rain measurements)
** Current wind speed in m/s (hover to see current wind gust speed)